When you browse on this site, cookies collect data to enhance your experience and personalize the content and advertising you see.
Visit our Privacy Policy to learn more. By continuing to use the site, you agree to this use of cookies and data.
  • In Slovakia
  • List of Countries
  • For 7 days
  • Water Temperature
  • Satellite Maps
  • Weather Map
  • Weather Widgets
  • user-avatar
    Login

    Hourly Weather San Juan

    Today, 27 May, Monday

    Time Temperature Precipitation Wind Pressure Humidity
    00:00 +10°C° 0 mm 2 mps 705 mmHg 45%
    01:00 +11°C° 0 mm 1 mps 705 mmHg 46%
    02:00 +11°C° 0 mm 1 mps 704 mmHg 47%
    03:00 +11°C° 0 mm 1 mps 704 mmHg 48%
    04:00 +10°C° 0 mm 1 mps 704 mmHg 48%
    05:00 +11°C° 0 mm 1 mps 704 mmHg 47%
    06:00 +11°C° 0 mm 1 mps 704 mmHg 47%
    07:00 +11°C° 0 mm 1 mps 704 mmHg 46%
    08:00 +12°C° 0 mm 1 mps 704 mmHg 40%
    09:00 +14°C° 0 mm 1 mps 704 mmHg 35%
    10:00 +15°C° 0 mm 1 mps 704 mmHg 30%
    11:00 +16°C° 0 mm 1 mps 704 mmHg 27%
    12:00 +17°C° 0 mm 2 mps 703 mmHg 25%
    13:00 +18°C° 0 mm 2 mps 703 mmHg 22%
    14:00 +18°C° 0 mm 2 mps 703 mmHg 22%
    15:00 +17°C° 0 mm 2 mps 703 mmHg 22%
    16:00 +18°C° 0 mm 1 mps 703 mmHg 21%
    17:00 +16°C° 0 mm 1 mps 703 mmHg 25%
    18:00 +14°C° 0 mm 1 mps 703 mmHg 28%
    19:00 +11°C° 0 mm 0 mps 704 mmHg 31%
    20:00 +11°C° 0 mm 0 mps 704 mmHg 32%
    21:00 +11°C° 0 mm 0 mps 704 mmHg 32%
    22:00 +10°C° 0 mm 0 mps 704 mmHg 33%
    23:00 +11°C° 0 mm 1 mps 704 mmHg 33%

    Tomorrow, 28 May, Tuesday

    Time Temperature Precipitation Wind Pressure Humidity
    00:00 +11°C° 0 mm 1 mps 704 mmHg 33%
    01:00 +10°C° 0 mm 1 mps 705 mmHg 33%
    02:00 +10°C° 0 mm 1 mps 705 mmHg 31%
    03:00 +10°C° 0 mm 1 mps 705 mmHg 29%
    04:00 +9°C° 0 mm 2 mps 705 mmHg 27%
    05:00 +10°C° 0 mm 2 mps 705 mmHg 26%
    06:00 +10°C° 0 mm 2 mps 705 mmHg 24%
    07:00 +10°C° 0 mm 2 mps 706 mmHg 23%
    08:00 +14°C° 0 mm 2 mps 706 mmHg 20%
    09:00 +16°C° 0 mm 2 mps 706 mmHg 18%
    10:00 +18°C° 0 mm 2 mps 707 mmHg 15%
    11:00 +19°C° 0 mm 2 mps 706 mmHg 13%
    12:00 +19°C° 0 mm 2 mps 705 mmHg 12%
    13:00 +20°C° 0 mm 2 mps 705 mmHg 11%
    14:00 +19°C° 0 mm 2 mps 705 mmHg 12%
    15:00 +19°C° 0 mm 3 mps 705 mmHg 13%
    16:00 +19°C° 0 mm 3 mps 705 mmHg 14%
    17:00 +17°C° 0 mm 3 mps 705 mmHg 18%
    18:00 +16°C° 0 mm 3 mps 705 mmHg 23%
    19:00 +14°C° 0 mm 3 mps 706 mmHg 27%
    20:00 +13°C° 0 mm 3 mps 706 mmHg 30%
    21:00 +13°C° 0 mm 2 mps 705 mmHg 32%
    22:00 +13°C° 0 mm 2 mps 705 mmHg 35%
    23:00 +12°C° 0 mm 2 mps 705 mmHg 37%

    Day after tomorrow, 29 May, Wednesday

    Time Temperature Precipitation Wind Pressure Humidity
    00:00 +12°C° 0 mm 2 mps 705 mmHg 39%
    01:00 +10°C° 0 mm 2 mps 704 mmHg 41%
    02:00 +10°C° 0 mm 2 mps 704 mmHg 43%
    03:00 +10°C° 0 mm 2 mps 703 mmHg 46%
    04:00 +9°C° 0 mm 2 mps 702 mmHg 48%
    05:00 +9°C° 0 mm 2 mps 702 mmHg 51%
    06:00 +9°C° 0 mm 2 mps 702 mmHg 53%
    07:00 +9°C° 0 mm 3 mps 702 mmHg 56%
    08:00 +10°C° 0 mm 3 mps 702 mmHg 55%
    09:00 +11°C° 0 mm 3 mps 702 mmHg 54%
    10:00 +12°C° 0 mm 3 mps 702 mmHg 52%
    11:00 +13°C° 0 mm 3 mps 702 mmHg 51%
    12:00 +13°C° 0 mm 3 mps 701 mmHg 50%
    13:00 +14°C° 0 mm 3 mps 701 mmHg 48%
    14:00 +13°C° 0 mm 3 mps 700 mmHg 52%
    15:00 +12°C° 0 mm 3 mps 700 mmHg 57%
    16:00 +12°C° 0 mm 3 mps 700 mmHg 61%
    17:00 +11°C° 0 mm 3 mps 701 mmHg 67%
    18:00 +10°C° 0 mm 3 mps 701 mmHg 72%
    19:00 +9°C° 0 mm 3 mps 701 mmHg 78%
    20:00 +9°C° 0 mm 2 mps 702 mmHg 78%
    21:00 +9°C° 0 mm 2 mps 702 mmHg 78%
    22:00 +10°C° 0 mm 1 mps 703 mmHg 78%
    23:00 +9°C° 0 mm 2 mps 703 mmHg 77%

    30 May, Thursday

    Time Temperature Precipitation Wind Pressure Humidity
    00:00 +8°C° 0 mm 2 mps 703 mmHg 77%
    01:00 +8°C° 0 mm 2 mps 703 mmHg 77%
    02:00 +8°C° 0 mm 2 mps 703 mmHg 77%
    03:00 +8°C° 0 mm 2 mps 703 mmHg 76%
    04:00 +9°C° 0 mm 1 mps 703 mmHg 76%
    05:00 +8°C° 0 mm 2 mps 704 mmHg 74%
    06:00 +8°C° 0 mm 2 mps 704 mmHg 73%
    07:00 +8°C° 0 mm 2 mps 705 mmHg 71%
    08:00 +10°C° 0 mm 2 mps 705 mmHg 65%
    09:00 +13°C° 0 mm 2 mps 705 mmHg 59%
    10:00 +14°C° 0 mm 2 mps 705 mmHg 52%
    11:00 +14°C° 0 mm 3 mps 705 mmHg 51%
    12:00 +14°C° 0 mm 3 mps 704 mmHg 49%
    13:00 +16°C° 0 mm 3 mps 703 mmHg 48%
    14:00 +16°C° 0 mm 3 mps 703 mmHg 52%
    15:00 +14°C° 0 mm 4 mps 703 mmHg 56%
    16:00 +13°C° 0 mm 4 mps 703 mmHg 60%
    17:00 +12°C° 0 mm 4 mps 704 mmHg 67%
    18:00 +11°C° 0 mm 3 mps 704 mmHg 75%
    19:00 +10°C° 0 mm 3 mps 705 mmHg 82%
    20:00 +10°C° 0 mm 2 mps 705 mmHg 80%
    21:00 +10°C° 0 mm 2 mps 705 mmHg 78%
    22:00 +10°C° 0 mm 2 mps 706 mmHg 76%
    23:00 +10°C° 0 mm 2 mps 706 mmHg 71%

    31 May, Friday

    Time Temperature Precipitation Wind Pressure Humidity
    00:00 +10°C° 0 mm 2 mps 706 mmHg 65%
    01:00 +10°C° 0 mm 2 mps 705 mmHg 60%
    02:00 +10°C° 0 mm 2 mps 705 mmHg 57%
    03:00 +9°C° 0 mm 2 mps 705 mmHg 55%
    04:00 +9°C° 0 mm 2 mps 704 mmHg 52%
    05:00 +9°C° 0 mm 2 mps 704 mmHg 55%
    06:00 +9°C° 0 mm 2 mps 704 mmHg 58%
    07:00 +9°C° 0 mm 2 mps 704 mmHg 61%
    08:00 +12°C° 0 mm 3 mps 704 mmHg 55%
    09:00 +14°C° 0 mm 4 mps 703 mmHg 48%
    10:00 +16°C° 0 mm 5 mps 703 mmHg 42%
    11:00 +17°C° 0 mm 5 mps 703 mmHg 36%
    12:00 +19°C° 0 mm 6 mps 702 mmHg 30%
    13:00 +21°C° 0 mm 7 mps 702 mmHg 25%
    14:00 +20°C° 0 mm 5 mps 702 mmHg 25%
    15:00 +19°C° 0 mm 4 mps 702 mmHg 26%
    16:00 +19°C° 0 mm 3 mps 702 mmHg 27%
    17:00 +18°C° 0 mm 4 mps 703 mmHg 23%
    18:00 +17°C° 0 mm 6 mps 703 mmHg 19%
    19:00 +16°C° 0 mm 7 mps 704 mmHg 15%
    20:00 +16°C° 0 mm 7 mps 704 mmHg 14%
    21:00 +15°C° 0 mm 7 mps 705 mmHg 14%
    22:00 +15°C° 0 mm 6 mps 705 mmHg 14%
    23:00 +14°C° 0 mm 7 mps 705 mmHg 16%

    1 June, Saturday

    Time Temperature Precipitation Wind Pressure Humidity
    00:00 +12°C° 0 mm 7 mps 705 mmHg 18%
    01:00 +11°C° 0 mm 7 mps 705 mmHg 20%
    02:00 +11°C° 0 mm 6 mps 705 mmHg 19%
    03:00 +10°C° 0 mm 5 mps 706 mmHg 17%
    04:00 +11°C° 0 mm 4 mps 706 mmHg 15%
    05:00 +10°C° 0 mm 5 mps 707 mmHg 15%
    06:00 +10°C° 0 mm 5 mps 708 mmHg 14%
    07:00 +10°C° 0 mm 5 mps 708 mmHg 14%
    08:00 +13°C° 0 mm 6 mps 708 mmHg 12%
    09:00 +16°C° 0 mm 6 mps 708 mmHg 9%
    10:00 +19°C° 0 mm 6 mps 708 mmHg 7%
    11:00 +20°C° 0 mm 6 mps 707 mmHg 6%
    12:00 +21°C° 0 mm 6 mps 706 mmHg 5%
    13:00 +22°C° 0 mm 6 mps 706 mmHg 4%
    14:00 +21°C° 0 mm 5 mps 706 mmHg 4%
    15:00 +20°C° 0 mm 3 mps 706 mmHg 4%
    16:00 +19°C° 0 mm 2 mps 706 mmHg 4%
    17:00 +17°C° 0 mm 2 mps 706 mmHg 4%
    18:00 +16°C° 0 mm 1 mps 707 mmHg 5%
    19:00 +14°C° 0 mm 1 mps 707 mmHg 5%
    20:00 +14°C° 0 mm 1 mps 708 mmHg 8%
    21:00 +14°C° 0 mm 2 mps 708 mmHg 11%
    22:00 +13°C° 0 mm 3 mps 709 mmHg 13%
    23:00 +12°C° 0 mm 3 mps 709 mmHg 19%
    Show more